User: anonymous   Login
Location: Unspecified
(0.0000°N, 0.0000°E)
Time: 12:34:59
(UTC+00:00)
Language:

Saudisat 1A - Orbit

View from above orbital plane
View from above orbital plane
View from above satellite
View from above satellite

Ground track
Ground track

The orbit data is extracted from the following two-line orbital elements,

1 26546U 00057B   18020.86477446 +.00000083 +00000-0 +24226-4 0  9993
2 26546 064.5550 013.9176 0007635 235.1251 124.9142 14.90671686939087
Epoch (UTC): 20 January 2018 20:45:16
Eccentricity: 0.0007635
inclination: 64.5550°
perigee height: 590 km
apogee height: 601 km
right ascension of ascending node: 13.9176°
argument of perigee: 235.1251°
revolutions per day: 14.90671686
mean anomaly at epoch: 124.9142°
orbit number at epoch: 93908

The dashed part of the orbit path shows where the satellite is in the earth's shadow,  

DLR